カタリナ彗星

P/2005 JQ5 ( Catalina )

English version
Home page
Total 6,336 html files since Dec. 4, 1995
Updated on May 8, 2006

---------------------------------------------------------------------

・ プロフィール

発見日 2005年5月6日
発見光度 16.7等
発見者 Catalina Sky Survey

・ 写真集

・ 軌道要素

Epoch 2005 July 9.0 TT = JDT 2453560.5
T 2005 July 28.03404 TT                                 MPC
q   0.8255914            (2000.0)            P               Q
n   0.22284759     Peri.  222.68363     +0.74614612     +0.65842139
a   2.6944125      Node    95.86136     -0.58095167     +0.71631126
e   0.6935913      Incl.    5.69581     -0.32520934     +0.23103993
P   4.42

・ 星図

・ 光度変化

        H = 17.5  G = 0.15                [   ,-73]  (              〜2005年 5月16日)
        m1 = 16.0 + 5 logΔ + 23.0 log r  [-73, 85]  (2005年 5月16日〜2005年10月21日)
        H = 17.5  G = 0.15                [ 85,   ]  (2005年10月21日〜              )

        ※ 緑色の曲線は、H = 17.5  G = 0.15 の光度曲線です。

---------------------------------------------------------------------

軌道要素はM.P.E.C. 2005-M24に掲載されたものです。
星図は StellaNavigator Ver.2.0 for Windows (アストロアーツ 編著 / アスキー出版局刊) で作成したものです。
光度グラフはComet for Windowsで作成したものです。

---------------------------------------------------------------------

Copyright(C) 1995-2008 Seiichi Yoshida (comet@aerith.net). All rights reserved.